When you browse on this site, cookies collect data to enhance your experience and personalize the content and advertising you see.
Visit our Privacy Policy to learn more. By continuing to use the site, you agree to this use of cookies and data.
  • In United Kingdom
  • List of Countries
  • For 7 days
  • Water Temperature
  • Weather Map
  • Weather Widgets
  • user-avatar
    Login

    Hourly Weather Ghazni

    Today, 15 September, Sunday

    Time Temperature Precipitation Wind Pressure Humidity
    00:00 +21°C° 0 mm 4 mps 589 mmHg 17%
    01:00 +20°C° 0 mm 3 mps 589 mmHg 21%
    02:00 +19°C° 0 mm 2 mps 588 mmHg 25%
    03:00 +18°C° 0 mm 2 mps 588 mmHg 26%
    04:00 +18°C° 0 mm 2 mps 587 mmHg 27%
    05:00 +18°C° 0 mm 1 mps 587 mmHg 28%
    06:00 +19°C° 0 mm 1 mps 588 mmHg 25%
    07:00 +20°C° 0 mm 1 mps 589 mmHg 22%
    08:00 +20°C° 0 mm 0 mps 590 mmHg 20%
    09:00 +23°C° 0 mm 1 mps 590 mmHg 18%
    10:00 +25°C° 0 mm 1 mps 590 mmHg 17%
    11:00 +26°C° 0 mm 2 mps 590 mmHg 15%
    12:00 +27°C° 0 mm 3 mps 590 mmHg 13%
    13:00 +29°C° 0 mm 3 mps 590 mmHg 11%
    14:00 +30°C° 0 mm 4 mps 590 mmHg 8%
    15:00 +30°C° 0 mm 4 mps 590 mmHg 8%
    16:00 +30°C° 0 mm 5 mps 590 mmHg 7%
    17:00 +30°C° 0 mm 6 mps 590 mmHg 7%
    18:00 +28°C° 0 mm 5 mps 590 mmHg 8%
    19:00 +26°C° 0 mm 4 mps 590 mmHg 9%
    20:00 +24°C° 0 mm 3 mps 589 mmHg 10%
    21:00 +22°C° 0 mm 3 mps 589 mmHg 10%
    22:00 +21°C° 0 mm 3 mps 589 mmHg 10%
    23:00 +20°C° 0 mm 3 mps 589 mmHg 10%

    Tomorrow, 16 September, Monday

    Time Temperature Precipitation Wind Pressure Humidity
    00:00 +19°C° 0 mm 3 mps 589 mmHg 11%
    01:00 +18°C° 0 mm 2 mps 588 mmHg 12%
    02:00 +17°C° 0 mm 2 mps 588 mmHg 12%
    03:00 +17°C° 0 mm 2 mps 587 mmHg 13%
    04:00 +16°C° 0 mm 2 mps 587 mmHg 14%
    05:00 +15°C° 0 mm 2 mps 587 mmHg 15%
    06:00 +16°C° 0 mm 2 mps 587 mmHg 14%
    07:00 +17°C° 0 mm 2 mps 588 mmHg 14%
    08:00 +18°C° 0 mm 2 mps 589 mmHg 13%
    09:00 +20°C° 0 mm 2 mps 589 mmHg 11%
    10:00 +23°C° 0 mm 2 mps 590 mmHg 9%
    11:00 +25°C° 0 mm 1 mps 590 mmHg 6%
    12:00 +26°C° 0 mm 2 mps 590 mmHg 6%
    13:00 +28°C° 0 mm 2 mps 590 mmHg 5%
    14:00 +29°C° 0 mm 2 mps 590 mmHg 4%
    15:00 +29°C° 0 mm 2 mps 589 mmHg 4%
    16:00 +29°C° 0 mm 3 mps 589 mmHg 4%
    17:00 +29°C° 0 mm 3 mps 589 mmHg 4%
    18:00 +27°C° 0 mm 3 mps 588 mmHg 5%
    19:00 +25°C° 0 mm 3 mps 588 mmHg 6%
    20:00 +22°C° 0 mm 4 mps 588 mmHg 8%
    21:00 +21°C° 0 mm 3 mps 588 mmHg 8%
    22:00 +20°C° 0 mm 3 mps 588 mmHg 8%
    23:00 +19°C° 0 mm 3 mps 588 mmHg 8%

    Day after tomorrow, 17 September, Tuesday

    Time Temperature Precipitation Wind Pressure Humidity
    00:00 +18°C° 0 mm 3 mps 587 mmHg 9%
    01:00 +17°C° 0 mm 3 mps 587 mmHg 11%
    02:00 +15°C° 0 mm 4 mps 586 mmHg 12%
    03:00 +15°C° 0 mm 4 mps 586 mmHg 14%
    04:00 +14°C° 0 mm 4 mps 586 mmHg 16%
    05:00 +13°C° 0 mm 4 mps 586 mmHg 19%
    06:00 +14°C° 0 mm 4 mps 587 mmHg 18%
    07:00 +15°C° 0 mm 4 mps 588 mmHg 18%
    08:00 +17°C° 0 mm 4 mps 588 mmHg 17%
    09:00 +19°C° 0 mm 4 mps 589 mmHg 14%
    10:00 +22°C° 0 mm 3 mps 590 mmHg 10%
    11:00 +25°C° 0 mm 3 mps 590 mmHg 7%
    12:00 +26°C° 0 mm 3 mps 590 mmHg 6%
    13:00 +27°C° 0 mm 2 mps 590 mmHg 5%
    14:00 +28°C° 0 mm 2 mps 590 mmHg 4%
    15:00 +28°C° 0 mm 2 mps 590 mmHg 4%
    16:00 +28°C° 0 mm 2 mps 590 mmHg 4%
    17:00 +28°C° 0 mm 2 mps 589 mmHg 4%
    18:00 +26°C° 0 mm 2 mps 589 mmHg 5%
    19:00 +23°C° 0 mm 1 mps 588 mmHg 6%
    20:00 +21°C° 0 mm 1 mps 587 mmHg 7%
    21:00 +20°C° 0 mm 1 mps 587 mmHg 7%
    22:00 +19°C° 0 mm 1 mps 587 mmHg 7%
    23:00 +19°C° 0 mm 1 mps 588 mmHg 7%

    18 September, Wednesday

    Time Temperature Precipitation Wind Pressure Humidity
    00:00 +18°C° 0 mm 1 mps 587 mmHg 9%
    01:00 +16°C° 0 mm 1 mps 587 mmHg 10%
    02:00 +16°C° 0 mm 1 mps 587 mmHg 12%
    03:00 +15°C° 0 mm 1 mps 587 mmHg 14%
    04:00 +14°C° 0 mm 1 mps 586 mmHg 16%
    05:00 +12°C° 0 mm 0 mps 586 mmHg 18%
    06:00 +15°C° 0 mm 0 mps 588 mmHg 17%
    07:00 +17°C° 0 mm 0 mps 589 mmHg 15%
    08:00 +19°C° 0 mm 0 mps 590 mmHg 14%
    09:00 +22°C° 0 mm 1 mps 591 mmHg 14%
    10:00 +24°C° 0 mm 1 mps 591 mmHg 14%
    11:00 +25°C° 0 mm 1 mps 592 mmHg 13%
    12:00 +27°C° 0 mm 2 mps 592 mmHg 11%
    13:00 +28°C° 0 mm 2 mps 592 mmHg 9%
    14:00 +29°C° 0 mm 3 mps 592 mmHg 7%
    15:00 +30°C° 0 mm 3 mps 592 mmHg 6%
    16:00 +30°C° 0 mm 3 mps 591 mmHg 5%
    17:00 +30°C° 0 mm 4 mps 591 mmHg 4%
    18:00 +28°C° 0 mm 4 mps 591 mmHg 5%
    19:00 +25°C° 0 mm 4 mps 590 mmHg 6%
    20:00 +22°C° 0 mm 4 mps 590 mmHg 7%
    21:00 +21°C° 0 mm 3 mps 590 mmHg 8%
    22:00 +20°C° 0 mm 2 mps 589 mmHg 8%
    23:00 +19°C° 0 mm 2 mps 589 mmHg 9%

    19 September, Thursday

    Time Temperature Precipitation Wind Pressure Humidity
    00:00 +18°C° 0 mm 2 mps 589 mmHg 9%
    01:00 +17°C° 0 mm 2 mps 588 mmHg 9%
    02:00 +18°C° 0 mm 1 mps 588 mmHg 10%
    03:00 +16°C° 0 mm 2 mps 588 mmHg 10%
    04:00 +16°C° 0 mm 2 mps 588 mmHg 10%
    05:00 +15°C° 0 mm 2 mps 588 mmHg 10%
    06:00 +17°C° 0 mm 2 mps 589 mmHg 10%
    07:00 +19°C° 0 mm 2 mps 590 mmHg 9%
    08:00 +20°C° 0 mm 2 mps 591 mmHg 8%
    09:00 +23°C° 0 mm 2 mps 591 mmHg 7%
    10:00 +25°C° 0 mm 2 mps 592 mmHg 6%
    11:00 +27°C° 0 mm 2 mps 593 mmHg 5%
    12:00 +28°C° 0 mm 2 mps 592 mmHg 5%
    13:00 +29°C° 0 mm 2 mps 592 mmHg 4%
    14:00 +29°C° 0 mm 2 mps 592 mmHg 4%
    15:00 +30°C° 0 mm 2 mps 592 mmHg 4%
    16:00 +30°C° 0 mm 3 mps 592 mmHg 4%
    17:00 +30°C° 0 mm 3 mps 591 mmHg 4%
    18:00 +27°C° 0 mm 3 mps 591 mmHg 5%
    19:00 +25°C° 0 mm 2 mps 591 mmHg 6%
    20:00 +23°C° 0 mm 2 mps 590 mmHg 8%
    21:00 +21°C° 0 mm 2 mps 590 mmHg 10%
    22:00 +20°C° 0 mm 2 mps 590 mmHg 13%
    23:00 +19°C° 0 mm 2 mps 590 mmHg 15%

    20 September, Friday

    Time Temperature Precipitation Wind Pressure Humidity
    00:00 +18°C° 0 mm 2 mps 589 mmHg 18%
    01:00 +18°C° 0 mm 2 mps 589 mmHg 20%
    02:00 +17°C° 0 mm 2 mps 588 mmHg 23%
    03:00 +17°C° 0 mm 2 mps 588 mmHg 24%
    04:00 +16°C° 0 mm 2 mps 588 mmHg 24%
    05:00 +16°C° 0 mm 2 mps 588 mmHg 25%
    06:00 +17°C° 0 mm 2 mps 589 mmHg 24%
    07:00 +18°C° 0 mm 2 mps 589 mmHg 22%
    08:00 +19°C° 0 mm 2 mps 590 mmHg 21%
    09:00 +21°C° 0 mm 2 mps 590 mmHg 19%
    10:00 +23°C° 0 mm 2 mps 591 mmHg 17%
    11:00 +25°C° 0 mm 2 mps 591 mmHg 15%
    12:00 +26°C° 0 mm 2 mps 591 mmHg 14%
    13:00 +27°C° 0 mm 2 mps 591 mmHg 12%
    14:00 +28°C° 0 mm 2 mps 590 mmHg 11%
    15:00 +28°C° 0 mm 2 mps 590 mmHg 11%
    16:00 +28°C° 0 mm 2 mps 590 mmHg 11%
    17:00 +28°C° 0 mm 2 mps 590 mmHg 11%
    18:00 +26°C° 0 mm 1 mps 589 mmHg 12%
    19:00 +24°C° 0 mm 1 mps 589 mmHg 14%
    20:00 +20°C° 0 mm 0 mps 589 mmHg 16%
    21:00 +22°C° 0 mm 1 mps 589 mmHg 17%
    22:00 +21°C° 0 mm 1 mps 589 mmHg 17%
    23:00 +20°C° 0 mm 1 mps 589 mmHg 17%
    Show more